period_start,C,m1,H,J0,J1,J2,J3,J4,J5,JA,JB,JC,JD,JJ,JK,JN,#
2016-06-30 00:04:59,0.00,1.23,0.00,25.73,29.34,32.00,14.21,47.57,1003.64,2029.97,2996.33,2744.68,3106.68,600.20,583.22,36.64,0000 0000 0000 0000 000000
2016-06-30 00:10:01,0.02,1.23,0.00,25.73,29.34,31.98,14.15,47.48,1003.81,2029.95,2996.20,2744.22,3106.22,600.35,583.44,36.69,0000 0000 0000 0000 000000
2016-06-30 00:15:02,-0.00,1.23,0.00,25.72,29.32,31.99,14.18,47.53,1004.28,2029.87,2996.03,2744.04,3106.03,600.15,583.44,36.74,0000 0000 0000 0000 000000
2016-06-30 00:20:03,0.00,1.23,0.00,25.70,29.32,32.00,14.18,47.49,1004.41,2029.87,2996.06,2744.03,3106.02,600.03,583.63,36.79,0000 0000 0000 0000 000000
2016-06-30 00:25:04,-0.01,1.23,0.00,25.68,29.32,31.97,14.20,47.42,1004.52,2029.86,2996.08,2744.09,3106.02,599.94,583.60,36.84,0000 0000 0000 0000 000000
2016-06-30 00:30:06,-0.00,1.23,0.00,25.66,29.31,31.97,14.20,47.48,1004.56,2029.86,2996.07,2744.09,3106.02,600.10,583.89,36.89,0000 0000 0000 0000 000000
2016-06-30 00:35:07,0.01,1.23,0.00,25.64,29.30,31.97,14.22,48.44,1004.69,2029.88,2996.03,2744.09,3106.01,600.53,584.33,36.94,0000 0000 0000 0000 000000
2016-06-30 00:40:08,-0.01,1.23,0.00,25.62,29.30,31.96,14.19,48.57,1004.75,2029.88,2996.04,2744.09,3106.02,599.93,583.90,36.99,0000 0000 0000 0000 000000
2016-06-30 00:45:10,-0.00,1.23,0.00,25.62,29.29,31.94,14.23,48.86,1004.40,2029.87,2996.15,2744.21,3106.07,599.88,583.59,37.04,0000 0000 0000 0000 000000
2016-06-30 00:50:11,-0.02,1.23,0.00,25.60,29.27,31.93,14.21,49.17,1003.95,2029.89,2996.57,2744.48,3106.35,600.05,583.50,37.09,0000 0000 0000 0000 000000
2016-06-30 00:55:12,0.03,1.23,0.00,25.60,29.27,31.94,14.14,49.00,1003.85,2029.93,2996.13,2744.07,3106.00,599.71,583.14,37.14,0000 0000 0000 0000 000000
2016-06-30 01:00:14,0.10,1.23,0.00,25.60,29.27,31.92,14.22,49.24,1003.53,2029.96,2995.50,2742.75,3104.70,600.26,583.43,37.19,0000 0000 0000 0000 000000
2016-06-30 01:05:15,0.08,1.24,0.00,25.60,29.25,31.92,14.24,48.90,1003.72,2029.98,2994.09,2741.06,3102.96,599.82,583.17,37.24,0000 0000 0000 0000 000000
2016-06-30 01:10:16,0.01,1.24,0.00,25.60,29.25,31.93,14.10,48.77,1003.92,2029.96,2994.00,2740.87,3102.48,599.58,583.07,37.29,0000 0000 0000 0000 000000
2016-06-30 01:15:18,0.04,1.24,0.00,25.58,29.25,31.91,14.25,48.98,1003.93,2029.98,2993.86,2740.18,3102.09,600.42,583.92,37.34,0000 0000 0000 0000 000000
2016-06-30 01:20:19,0.00,1.24,0.00,25.57,29.25,31.90,14.21,48.48,1004.20,2029.97,2993.62,2740.00,3101.99,599.70,583.31,37.40,0000 0000 0000 0000 000000
2016-06-30 01:25:20,0.02,1.24,0.00,25.57,29.25,31.91,14.20,48.43,1004.36,2029.98,2993.18,2739.93,3101.61,599.73,583.51,37.45,0000 0000 0000 0000 000000
2016-06-30 01:30:22,0.02,1.24,0.00,25.56,29.24,31.89,14.29,49.13,1004.04,2029.98,2993.18,2739.71,3101.30,600.14,583.80,37.50,0000 0000 0000 0000 000000
2016-06-30 01:35:23,0.02,1.24,0.00,25.55,29.23,31.87,14.18,48.63,1003.99,2029.98,2993.01,2739.05,3101.00,599.84,583.40,37.55,0000 0000 0000 0000 000000
2016-06-30 01:40:25,0.17,1.25,0.00,25.55,29.22,31.88,14.18,48.68,1004.11,2029.98,2991.82,2737.34,3098.91,600.01,583.81,37.60,0000 0000 0000 0000 000000
2016-06-30 01:45:25,0.07,1.26,0.00,25.52,29.22,31.86,14.28,48.51,1004.44,2029.96,2990.16,2735.17,3096.95,600.14,584.06,37.65,0000 0000 0000 0000 000000
2016-06-30 01:50:27,0.06,1.26,0.00,25.51,29.22,31.87,14.09,48.34,1004.78,2029.98,2989.77,2734.13,3095.99,599.55,583.74,37.70,0000 0000 0000 0000 000000
2016-06-30 01:55:28,0.02,1.26,0.00,25.51,29.22,31.87,14.24,48.24,1005.34,2029.96,2989.14,2734.00,3095.25,600.05,584.55,37.75,0000 0000 0000 0000 000000
2016-06-30 02:00:29,0.00,1.26,0.00,25.50,29.21,31.87,14.27,48.45,1005.39,2029.97,2989.00,2733.95,3095.00,599.70,584.29,37.80,0000 0000 0000 0000 000000
2016-06-30 02:05:31,0.02,1.26,0.00,25.49,29.20,31.88,14.12,48.28,1005.71,2029.98,2988.92,2733.36,3094.83,599.74,584.47,37.85,0000 0000 0000 0000 000000
2016-06-30 02:10:32,0.05,1.26,0.00,25.46,29.20,31.85,14.14,47.96,1005.87,2029.96,2988.08,2732.76,3093.94,599.87,584.65,37.90,0000 0000 0000 0000 000000
2016-06-30 02:15:33,0.03,1.27,0.00,25.45,29.20,31.85,14.25,48.09,1006.09,2029.98,2987.96,2732.05,3093.20,599.81,584.75,37.95,0000 0000 0000 0000 000000
2016-06-30 02:20:35,0.01,1.27,0.00,25.45,29.20,31.83,14.24,48.07,1006.26,2029.96,2987.48,2731.99,3093.00,599.89,585.05,38.00,0000 0000 0000 0000 000000
2016-06-30 02:25:36,0.10,1.27,0.00,25.43,29.18,31.83,14.25,47.91,1006.50,2029.97,2986.63,2730.69,3091.67,599.66,584.97,38.05,0000 0000 0000 0000 000000
2016-06-30 02:30:37,0.01,1.27,0.00,25.42,29.17,31.82,14.24,47.94,1006.79,2029.98,2986.00,2730.01,3090.98,599.72,585.27,38.10,0000 0000 0000 0000 000000
2016-06-30 02:35:39,0.01,1.27,0.00,25.41,29.17,31.82,14.21,47.90,1006.85,2029.99,2985.96,2729.94,3090.62,600.03,585.50,38.15,0000 0000 0000 0000 000000
2016-06-30 02:40:40,0.01,1.27,0.00,25.40,29.17,31.82,14.30,48.08,1006.86,2029.97,2985.94,2729.67,3090.08,600.05,585.62,38.20,0000 0000 0000 0000 000000
2016-06-30 02:45:41,0.03,1.28,0.00,25.40,29.16,31.81,14.16,47.90,1006.88,2029.97,2985.22,2729.06,3089.96,599.66,585.29,38.25,0000 0000 0000 0000 000000
2016-06-30 02:50:43,0.02,1.28,0.00,25.39,29.15,31.81,14.21,47.95,1006.88,2029.98,2984.91,2728.84,3089.39,599.95,585.41,38.31,0000 0000 0000 0000 000000
2016-06-30 02:55:44,0.05,1.28,0.00,25.37,29.15,31.80,14.20,47.98,1006.86,2029.95,2984.10,2727.98,3088.36,599.83,585.51,38.36,0000 0000 0000 0000 000000
2016-06-30 03:00:45,0.04,1.28,0.00,25.37,29.15,31.78,14.36,48.13,1006.83,2029.98,2983.85,2727.22,3087.71,600.09,585.64,38.41,0000 0000 0000 0000 000000
2016-06-30 03:05:47,0.02,1.28,0.00,25.36,29.15,31.78,14.19,47.98,1006.72,2029.98,2983.19,2726.91,3087.02,600.09,585.70,38.46,0000 0000 0000 0000 000000
2016-06-30 03:10:48,0.03,1.29,0.00,25.35,29.14,31.78,14.23,47.92,1006.64,2029.98,2982.99,2726.21,3086.76,600.12,585.61,38.51,0000 0000 0000 0000 000000
2016-06-30 03:15:49,0.02,1.29,0.00,25.34,29.13,31.76,14.24,47.82,1006.79,2029.98,2982.58,2726.00,3086.07,600.13,585.75,38.56,0000 0000 0000 0000 000000
2016-06-30 03:20:50,0.00,1.29,0.00,25.35,29.12,31.76,14.23,48.21,1006.84,2029.97,2982.07,2725.93,3085.99,600.27,585.93,38.61,0000 0000 0000 0000 000000
2016-06-30 03:25:52,0.02,1.29,0.00,25.33,29.12,31.76,14.21,48.14,1006.87,2029.98,2982.00,2725.36,3085.88,599.86,585.70,38.66,0000 0000 0000 0000 000000
2016-06-30 03:30:53,0.02,1.29,0.00,25.32,29.12,31.76,14.23,47.92,1006.88,2029.99,2981.99,2725.08,3085.42,599.92,585.67,38.71,0000 0000 0000 0000 000000
2016-06-30 03:35:54,0.00,1.29,0.00,25.32,29.12,31.76,14.25,47.95,1006.96,2029.99,2981.98,2725.00,3085.03,600.30,586.16,38.76,0000 0000 0000 0000 000000
2016-06-30 03:40:55,0.00,1.29,0.00,25.30,29.12,31.75,14.25,48.08,1006.81,2029.99,2981.85,2725.00,3085.00,599.83,585.58,38.81,0000 0000 0000 0000 000000
2016-06-30 03:45:56,0.04,1.29,0.00,25.29,29.12,31.74,14.23,48.16,1006.65,2029.99,2981.22,2724.76,3084.77,599.94,585.67,38.86,0000 0000 0000 0000 000000
2016-06-30 03:50:57,0.02,1.29,0.00,25.27,29.10,31.75,14.26,48.13,1006.57,2029.99,2980.92,2724.04,3084.02,600.04,585.74,38.91,0000 0000 0000 0000 000000
2016-06-30 03:55:59,0.06,1.30,0.00,25.27,29.10,31.74,14.27,48.00,1006.75,2029.99,2980.14,2723.37,3083.26,600.10,585.75,38.96,0000 0000 0000 0000 000000
2016-06-30 04:01:00,0.02,1.30,0.00,25.25,29.10,31.73,14.24,48.24,1006.75,2029.99,2979.74,2722.88,3082.65,599.88,585.67,39.01,0000 0000 0000 0000 000000
2016-06-30 04:06:01,0.05,1.30,0.00,25.25,29.10,31.72,14.19,48.27,1006.90,2029.99,2979.02,2722.06,3081.82,599.66,585.54,39.06,0000 0000 0000 0000 000000
2016-06-30 04:11:02,0.04,1.30,0.00,25.24,29.10,31.73,14.24,47.93,1007.33,2029.99,2978.42,2721.66,3081.07,599.82,586.02,39.11,0000 0000 0000 0000 000000
2016-06-30 04:16:04,0.03,1.30,0.00,25.23,29.09,31.71,14.25,47.77,1007.66,2029.99,2977.99,2721.01,3080.29,599.69,586.22,39.16,0000 0000 0000 0000 000000
2016-06-30 04:21:05,0.01,1.31,0.00,25.22,29.07,31.70,14.28,48.02,1007.73,2029.99,2977.81,2720.78,3080.00,600.41,586.89,39.21,0000 0000 0000 0000 000000
2016-06-30 04:26:07,0.03,1.31,0.00,25.20,29.07,31.71,14.29,47.90,1007.88,2029.99,2977.14,2720.11,3079.76,600.11,586.64,39.26,0000 0000 0000 0000 000000
2016-06-30 04:31:08,0.01,1.31,0.00,25.20,29.07,31.70,14.30,47.88,1007.98,2029.99,2976.99,2720.00,3079.06,599.92,586.48,39.32,0000 0000 0000 0000 000000
2016-06-30 04:36:10,0.00,1.31,0.00,25.20,29.07,31.70,14.34,48.02,1007.98,2029.99,2976.95,2719.99,3079.00,600.00,586.63,39.37,0000 0000 0000 0000 000000
2016-06-30 04:41:11,0.00,1.31,0.00,25.19,29.07,31.70,14.29,48.01,1007.95,2029.99,2976.97,2719.97,3079.00,600.16,586.73,39.42,0000 0000 0000 0000 000000
2016-06-30 04:46:12,0.00,1.31,0.00,25.17,29.07,31.69,14.21,47.78,1007.90,2029.99,2976.99,2719.98,3079.00,600.01,586.79,39.47,0000 0000 0000 0000 000000
2016-06-30 04:51:14,0.00,1.31,0.00,25.17,29.06,31.70,14.27,47.74,1008.18,2029.99,2976.97,2719.96,3079.00,599.87,586.91,39.52,0000 0000 0000 0000 000000
2016-06-30 04:56:15,0.00,1.31,0.00,25.17,29.05,31.68,14.22,47.77,1008.11,2030.00,2976.99,2719.97,3079.00,600.00,586.74,39.57,0000 0000 0000 0000 000000
2016-06-30 05:01:16,0.00,1.31,0.00,25.16,29.05,31.68,14.23,48.01,1008.30,2030.00,2976.99,2719.97,3079.00,599.78,586.68,39.62,0000 0000 0000 0000 000000
2016-06-30 05:06:17,0.03,1.31,0.00,25.16,29.05,31.67,14.31,48.03,1008.30,2030.00,2976.85,2719.44,3078.98,599.90,586.88,39.67,0000 0000 0000 0000 000000
2016-06-30 05:11:18,-0.00,1.31,0.00,25.15,29.05,31.67,14.26,47.92,1008.33,2030.00,2976.88,2719.11,3078.96,599.88,586.90,39.72,0000 0000 0000 0000 000000
2016-06-30 05:16:19,-0.00,1.31,0.00,25.14,29.05,31.67,14.29,47.73,1008.31,2030.00,2976.88,2719.08,3078.95,599.99,586.85,39.77,0000 0000 0000 0000 000000
2016-06-30 05:21:21,0.01,1.31,0.00,25.12,29.05,31.66,14.25,48.13,1008.33,2030.00,2976.70,2719.03,3078.82,600.10,586.99,39.82,0000 0000 0000 0000 000000
2016-06-30 05:26:22,0.02,1.31,0.00,25.12,29.05,31.66,14.37,48.03,1008.31,2030.00,2976.18,2719.00,3078.17,600.42,587.37,39.87,0000 0000 0000 0000 000000
2016-06-30 05:31:22,0.01,1.31,0.00,25.11,29.04,31.65,14.25,48.03,1008.08,2030.00,2976.09,2718.88,3078.04,599.88,586.70,39.92,0000 0000 0000 0000 000000
2016-06-30 05:36:24,0.02,1.31,0.00,25.10,29.04,31.64,14.29,48.05,1008.05,2029.99,2976.00,2718.14,3077.93,600.13,586.91,39.97,0000 0000 0000 0000 000000
2016-06-30 05:41:25,0.00,1.31,0.00,25.09,29.02,31.65,14.25,47.94,1008.28,2029.99,2976.00,2718.11,3077.94,599.89,586.89,40.02,0000 0000 0000 0000 000000
2016-06-30 05:46:26,0.00,1.31,0.00,25.08,29.02,31.65,14.29,48.07,1008.37,2029.99,2975.98,2718.05,3077.86,600.03,587.04,40.07,0000 0000 0000 0000 000000
2016-06-30 05:51:27,0.01,1.31,0.00,25.07,29.02,31.64,14.34,48.22,1008.41,2029.99,2975.95,2718.01,3077.41,600.15,587.34,40.12,0000 0000 0000 0000 000000
2016-06-30 05:56:28,0.01,1.31,0.00,25.05,29.02,31.64,14.35,48.01,1008.39,2029.99,2975.77,2717.99,3077.03,600.22,587.42,40.17,0000 0000 0000 0000 000000
2016-06-30 06:01:30,0.02,1.32,0.00,25.05,29.02,31.62,14.26,47.92,1008.62,2029.99,2975.33,2717.82,3076.99,600.04,587.32,40.22,0000 0000 0000 0000 000000
2016-06-30 06:06:31,0.04,1.32,0.00,25.06,29.02,31.63,14.26,47.87,1008.80,2029.99,2975.00,2717.04,3076.37,599.91,587.25,40.28,0000 0000 0000 0000 000000
2016-06-30 06:11:33,0.03,1.32,0.00,25.05,29.01,31.63,14.28,47.79,1008.95,2029.99,2974.54,2716.53,3075.97,599.87,587.37,40.33,0000 0000 0000 0000 000000
2016-06-30 06:16:34,0.01,1.32,0.00,25.05,29.00,31.62,14.24,47.83,1009.12,2029.99,2974.32,2716.25,3075.92,599.78,587.31,40.38,0000 0000 0000 0000 000000
2016-06-30 06:21:35,0.02,1.32,0.00,25.05,29.00,31.63,14.32,47.63,1009.39,2029.99,2974.03,2716.02,3075.37,599.97,587.70,40.43,0000 0000 0000 0000 000000
2016-06-30 06:26:36,0.00,1.32,0.00,25.04,29.00,31.63,14.38,47.73,1009.65,2029.99,2974.01,2716.01,3075.10,600.22,588.18,40.48,0000 0000 0000 0000 000000
2016-06-30 06:31:38,0.00,1.32,0.00,25.03,29.00,31.62,14.30,47.75,1009.67,2029.99,2974.01,2716.00,3075.05,599.99,587.91,40.53,0000 0000 0000 0000 000000
2016-06-30 06:36:39,0.00,1.32,0.00,25.04,29.00,31.61,14.29,47.84,1009.72,2029.99,2974.00,2716.00,3075.01,600.10,588.00,40.58,0000 0000 0000 0000 000000
2016-06-30 06:41:40,0.00,1.32,0.00,25.04,29.00,31.62,14.30,47.85,1009.67,2029.99,2974.00,2716.00,3075.00,599.90,587.82,40.63,0000 0000 0000 0000 000000
2016-06-30 06:46:41,0.04,1.32,0.00,25.03,29.00,31.60,14.29,47.75,1009.74,2029.99,2973.55,2715.68,3074.70,600.05,587.99,40.68,0000 0000 0000 0000 000000
2016-06-30 06:51:42,0.09,1.33,0.00,25.03,28.99,31.60,14.28,47.95,1009.78,2029.99,2972.06,2714.36,3073.17,600.04,587.97,40.73,0000 0000 0000 0000 000000
2016-06-30 06:56:43,0.09,1.33,0.00,25.01,28.97,31.61,14.30,47.84,1009.84,2029.99,2970.60,2713.06,3071.61,600.37,588.33,40.78,0000 0000 0000 0000 000000
2016-06-30 07:01:45,0.11,1.34,0.00,25.01,28.97,31.59,14.28,47.88,1009.89,2029.99,2968.95,2711.62,3069.92,599.40,587.45,40.83,0000 0000 0000 0000 000000
2016-06-30 07:06:46,0.11,1.34,0.00,25.00,28.97,31.59,14.25,47.73,1009.86,2029.99,2967.32,2709.99,3067.94,599.30,587.47,40.88,0000 0000 0000 0000 000000
2016-06-30 07:11:48,0.07,1.35,0.00,25.00,28.97,31.59,14.26,47.96,1009.86,2029.99,2966.01,2708.88,3066.55,599.87,587.98,40.93,0000 0000 0000 0000 000000
2016-06-30 07:16:49,0.08,1.35,0.00,25.01,28.96,31.58,14.33,47.84,1010.05,2030.00,2964.87,2707.83,3065.36,600.03,588.28,40.98,0000 0000 0000 0000 000000
2016-06-30 07:21:50,0.04,1.35,0.00,25.01,28.95,31.58,14.30,48.05,1009.95,2030.00,2964.00,2707.03,3064.26,599.59,587.73,41.03,0000 0000 0000 0000 000000
2016-06-30 07:26:51,0.06,1.36,0.00,25.00,28.95,31.57,14.32,48.00,1010.07,2030.00,2963.18,2706.36,3063.59,599.80,588.03,41.08,0000 0000 0000 0000 000000
2016-06-30 07:31:52,0.05,1.36,0.00,25.00,28.95,31.56,14.32,47.92,1010.25,2030.00,2962.41,2705.70,3062.66,600.02,588.30,41.13,0000 0000 0000 0000 000000
2016-06-30 07:36:54,0.02,1.36,0.00,25.01,28.95,31.57,14.32,47.90,1010.28,2030.00,2961.86,2705.03,3061.97,599.86,588.29,41.19,0000 0000 0000 0000 000000
2016-06-30 07:41:55,0.06,1.36,0.00,25.00,28.95,31.54,14.32,47.91,1010.31,2030.00,2961.03,2704.28,3061.10,600.04,588.47,41.24,0000 0000 0000 0000 000000
2016-06-30 07:46:56,0.06,1.37,0.00,25.00,28.95,31.56,14.37,47.80,1010.31,2030.00,2960.12,2703.60,3060.07,600.55,588.84,41.29,0000 0000 0000 0000 000000
2016-06-30 07:51:57,0.05,1.37,0.00,24.99,28.94,31.54,14.37,47.77,1010.47,2030.00,2959.11,2702.77,3059.03,600.34,588.81,41.34,0000 0000 0000 0000 000000
2016-06-30 07:56:59,0.05,1.37,0.00,24.98,28.92,31.56,14.30,47.98,1010.55,2030.00,2958.50,2702.03,3058.13,599.94,588.41,41.39,0000 0000 0000 0000 000000
2016-06-30 08:02:00,0.00,1.37,0.00,24.97,28.92,31.55,14.25,48.04,1010.59,2030.00,2958.11,2702.00,3058.00,599.84,588.41,41.44,0000 0000 0000 0000 000000
2016-06-30 08:07:01,0.03,1.37,0.00,24.95,28.92,31.54,14.34,47.84,1010.49,2030.00,2958.00,2701.68,3057.72,600.16,588.74,41.49,0000 0000 0000 0000 000000
2016-06-30 08:12:03,0.03,1.38,0.00,24.93,28.91,31.55,14.34,47.95,1010.71,2030.02,2957.55,2701.07,3057.08,599.75,588.44,41.54,0000 0000 0000 0000 000000
2016-06-30 08:17:04,0.02,1.38,0.00,24.91,28.90,31.53,14.29,47.74,1010.75,2030.01,2956.98,2700.80,3056.65,599.96,588.76,41.59,0000 0000 0000 0000 000000
2016-06-30 08:22:05,0.04,1.38,0.00,24.91,28.90,31.53,14.34,47.90,1010.76,2030.02,2956.31,2700.06,3056.02,599.96,588.83,41.64,0000 0000 0000 0000 000000
2016-06-30 08:27:06,0.03,1.38,0.00,24.91,28.90,31.52,14.36,47.85,1010.76,2030.05,2955.94,2699.84,3055.43,600.04,588.93,41.69,0000 0000 0000 0000 000000
2016-06-30 08:32:08,0.04,1.38,0.00,24.91,28.89,31.53,14.26,47.74,1010.78,2030.04,2955.13,2699.07,3054.86,599.61,588.34,41.74,0000 0000 0000 0000 000000
2016-06-30 08:37:09,0.01,1.39,0.00,24.90,28.87,31.51,14.19,47.58,1010.82,2030.04,2954.99,2698.99,3054.18,599.68,588.47,41.79,0000 0000 0000 0000 000000
2016-06-30 08:42:10,0.03,1.39,0.00,24.90,28.87,31.51,14.27,47.66,1011.02,2030.09,2954.71,2698.71,3054.00,599.92,588.85,41.84,0000 0000 0000 0000 000000
2016-06-30 08:47:12,0.04,1.39,0.00,24.90,28.87,31.50,14.32,47.78,1011.19,2030.15,2954.08,2698.08,3053.60,600.20,589.28,41.89,0000 0000 0000 0000 000000
2016-06-30 08:52:13,0.02,1.39,0.00,24.90,28.87,31.50,14.36,47.55,1011.24,2030.20,2953.76,2697.89,3053.00,599.82,588.97,41.94,0000 0000 0000 0000 000000
2016-06-30 08:57:14,0.04,1.39,0.00,24.90,28.87,31.52,14.22,47.84,1011.23,2030.17,2953.04,2697.13,3052.22,599.56,588.67,41.99,0000 0000 0000 0000 000000
2016-06-30 09:02:15,0.07,1.39,0.00,24.91,28.86,31.50,14.35,47.73,1011.26,2030.38,2952.49,2696.64,3051.60,600.17,589.33,42.04,0000 0000 0000 0000 000000
2016-06-30 09:07:16,0.08,1.40,0.00,24.89,28.85,31.49,14.31,47.65,1011.35,2030.67,2951.62,2695.87,3050.61,599.95,588.98,42.09,0000 0000 0000 0000 000000
2016-06-30 09:12:17,0.04,1.40,0.00,24.88,28.85,31.48,14.24,47.66,1011.32,2030.74,2950.78,2695.05,3049.69,599.92,589.07,42.14,0000 0000 0000 0000 000000
2016-06-30 09:17:19,0.05,1.41,0.00,24.87,28.85,31.48,14.34,47.65,1011.27,2030.82,2950.06,2694.59,3049.01,599.99,589.07,42.19,0000 0000 0000 0000 000000
2016-06-30 09:22:20,0.02,1.41,0.00,24.87,28.85,31.48,14.43,47.73,1011.26,2030.78,2949.61,2694.01,3048.37,600.12,589.28,42.25,0000 0000 0000 0000 000000
2016-06-30 09:27:21,0.02,1.41,0.00,24.86,28.85,31.47,14.39,47.77,1011.26,2030.68,2949.01,2693.50,3047.99,600.28,589.52,42.30,0000 0000 0000 0000 000000
2016-06-30 09:32:22,0.02,1.41,0.00,24.86,28.85,31.47,14.38,47.92,1011.24,2030.80,2949.00,2693.24,3047.96,600.11,589.22,42.35,0000 0000 0000 0000 000000
2016-06-30 09:37:23,0.03,1.41,0.00,24.85,28.85,31.48,14.26,47.86,1011.24,2030.89,2948.83,2693.08,3047.39,599.78,589.01,42.40,0000 0000 0000 0000 000000
2016-06-30 09:42:25,0.03,1.41,0.00,24.85,28.83,31.48,14.28,47.73,1011.25,2030.95,2948.05,2692.78,3046.89,600.01,589.28,42.45,0000 0000 0000 0000 000000
2016-06-30 09:47:26,0.05,1.42,0.00,24.85,28.83,31.47,14.42,47.76,1011.28,2030.95,2947.38,2692.04,3046.03,600.36,589.56,42.50,0000 0000 0000 0000 000000
2016-06-30 09:52:27,0.06,1.42,0.00,24.86,28.82,31.47,14.37,47.69,1011.46,2030.96,2946.69,2691.34,3045.17,600.18,589.45,42.55,0000 0000 0000 0000 000000
2016-06-30 09:57:28,0.02,1.42,0.00,24.87,28.82,31.45,14.37,47.67,1011.41,2030.95,2946.00,2690.94,3044.43,599.77,589.04,42.60,0000 0000 0000 0000 000000
2016-06-30 10:02:29,0.05,1.42,0.00,24.88,28.82,31.45,14.42,47.59,1011.55,2030.96,2945.33,2690.16,3043.78,600.08,589.41,42.65,0000 0000 0000 0000 000000
2016-06-30 10:07:30,0.07,1.43,0.00,24.89,28.82,31.45,14.32,47.65,1011.71,2030.96,2944.39,2689.26,3042.72,600.04,589.43,42.70,0000 0000 0000 0000 000000
2016-06-30 10:12:31,0.06,1.43,0.00,24.90,28.82,31.44,14.38,47.59,1011.73,2030.96,2943.50,2688.36,3041.56,600.23,589.62,42.75,0000 0000 0000 0000 000000
2016-06-30 10:17:33,0.06,1.43,0.00,24.90,28.82,31.43,14.28,47.64,1011.73,2030.91,2942.45,2687.40,3040.40,600.05,589.35,42.80,0000 0000 0000 0000 000000
2016-06-30 10:22:34,0.02,1.43,0.00,24.92,28.82,31.42,14.31,47.52,1011.74,2030.95,2941.88,2686.98,3039.80,599.86,589.24,42.85,0000 0000 0000 0000 000000
2016-06-30 10:27:35,0.06,1.44,0.00,24.94,28.82,31.42,14.33,47.66,1011.79,2030.96,2941.08,2686.16,3038.88,599.97,589.32,42.90,0000 0000 0000 0000 000000
2016-06-30 10:32:37,0.06,1.44,0.00,24.95,28.82,31.41,14.34,47.63,1012.07,2030.94,2940.27,2685.50,3037.86,599.90,589.34,42.95,0000 0000 0000 0000 000000
2016-06-30 10:37:38,0.05,1.44,0.00,24.95,28.82,31.41,14.31,47.54,1012.21,2030.95,2939.44,2684.78,3036.93,599.92,589.60,43.00,0000 0000 0000 0000 000000
2016-06-30 10:42:40,0.04,1.45,0.00,24.96,28.82,31.40,14.35,47.67,1012.22,2030.95,2938.70,2684.01,3035.99,600.02,589.58,43.05,0000 0000 0000 0000 000000
2016-06-30 10:47:41,0.04,1.45,0.00,24.97,28.84,31.40,14.38,47.66,1012.22,2030.79,2937.92,2683.17,3034.99,600.33,589.90,43.10,0000 0000 0000 0000 000000
2016-06-30 10:52:42,0.06,1.45,0.00,24.97,28.85,31.41,14.35,47.52,1012.24,2030.69,2937.03,2682.31,3033.96,599.67,589.05,43.16,0000 0000 0000 0000 000000
2016-06-30 10:57:44,0.07,1.45,0.00,24.99,28.85,31.42,14.37,47.49,1012.25,2030.56,2935.96,2681.42,3032.82,600.37,589.87,43.21,0000 0000 0000 0000 000000
2016-06-30 11:02:45,0.11,1.46,0.00,25.01,28.85,31.43,14.30,47.47,1012.29,2030.67,2934.56,2680.08,3031.27,599.95,589.45,43.26,0000 0000 0000 0000 000000
2016-06-30 11:07:46,0.10,1.46,0.00,25.04,28.87,31.46,14.28,47.46,1012.46,2030.46,2932.68,2678.37,3029.16,599.97,589.51,43.31,0000 0000 0000 0000 000000
2016-06-30 11:12:48,0.13,1.47,0.00,25.06,28.87,31.48,14.32,47.42,1012.59,2030.43,2930.63,2676.48,3026.94,599.99,589.55,43.36,0000 0000 0000 0000 000000
2016-06-30 11:17:49,0.12,1.48,0.00,25.08,28.89,31.50,14.24,47.66,1012.64,2030.19,2928.40,2674.44,3024.44,599.77,589.34,43.41,0000 0000 0000 0000 000000
2016-06-30 11:22:50,0.13,1.48,0.00,25.10,28.90,31.51,14.39,47.53,1012.66,2030.12,2926.36,2672.61,3022.21,600.25,589.79,43.46,0000 0000 0000 0000 000000
2016-06-30 11:27:52,0.14,1.49,0.00,25.11,28.91,31.52,14.35,47.49,1012.68,2030.08,2924.26,2670.74,3019.91,600.29,589.86,43.51,0000 0000 0000 0000 000000
2016-06-30 11:32:53,0.16,1.50,0.00,25.12,28.92,31.52,14.31,47.49,1012.70,2030.03,2921.85,2668.51,3017.29,600.34,589.81,43.56,0000 0000 0000 0000 000000
2016-06-30 11:37:54,0.17,1.51,0.00,25.13,28.92,31.53,14.32,47.59,1012.67,2030.03,2919.38,2666.28,3014.52,600.13,589.61,43.61,0000 0000 0000 0000 000000
2016-06-30 11:42:55,0.17,1.52,0.00,25.14,28.95,31.54,14.35,47.58,1012.69,2030.00,2916.85,2663.94,3011.73,600.00,589.51,43.66,0000 0000 0000 0000 000000
2016-06-30 11:47:57,0.16,1.52,0.00,25.12,28.95,31.54,14.28,47.60,1012.70,2030.00,2914.46,2661.79,3009.10,599.89,589.42,43.71,0000 0000 0000 0000 000000
2016-06-30 11:52:58,0.16,1.53,0.00,25.12,28.95,31.54,14.30,47.58,1012.69,2030.00,2911.92,2659.52,3006.46,599.92,589.49,43.76,0000 0000 0000 0000 000000
2016-06-30 11:57:59,0.18,1.54,0.00,25.11,28.95,31.56,14.35,47.58,1012.69,2030.01,2909.34,2657.23,3003.69,600.11,589.65,43.81,0000 0000 0000 0000 000000
2016-06-30 12:03:01,0.17,1.55,0.00,25.10,28.96,31.57,14.32,47.63,1012.64,2030.00,2906.87,2654.94,3000.98,599.72,589.26,43.86,0000 0000 0000 0000 000000
2016-06-30 12:08:02,0.17,1.56,0.00,25.08,28.97,31.58,14.34,47.71,1012.48,2030.00,2904.33,2652.60,2998.20,600.20,589.68,43.91,0000 0000 0000 0000 000000
2016-06-30 12:13:03,0.20,1.57,0.00,25.06,28.97,31.60,14.35,47.64,1012.43,2030.00,2901.43,2650.01,2995.02,600.28,589.72,43.96,0000 0000 0000 0000 000000
2016-06-30 12:18:04,0.21,1.58,0.00,25.04,28.97,31.60,14.36,47.65,1012.49,2030.00,2898.34,2647.21,2991.62,600.14,589.69,44.01,0000 0000 0000 0000 000000
2016-06-30 12:23:06,0.22,1.59,0.00,25.02,28.97,31.60,14.35,47.72,1012.36,2030.00,2895.12,2644.26,2988.03,599.91,589.43,44.07,0000 0000 0000 0000 000000
2016-06-30 12:28:07,0.22,1.60,0.00,25.00,28.97,31.61,14.27,47.63,1012.24,2030.00,2891.83,2641.33,2984.47,599.75,589.32,44.12,0000 0000 0000 0000 000000
2016-06-30 12:33:08,0.22,1.61,0.00,24.98,28.97,31.60,14.34,47.75,1012.24,2030.00,2888.58,2638.43,2980.97,600.01,589.56,44.17,0000 0000 0000 0000 000000
2016-06-30 12:38:09,0.21,1.63,0.00,24.97,28.97,31.60,14.30,47.76,1012.23,2030.00,2885.39,2635.55,2977.48,599.88,589.47,44.22,0000 0000 0000 0000 000000
2016-06-30 12:43:10,0.21,1.64,0.00,24.97,28.97,31.60,14.37,47.92,1012.22,2029.99,2882.32,2632.80,2974.08,600.13,589.67,44.27,0000 0000 0000 0000 000000
2016-06-30 12:48:12,0.21,1.65,0.00,24.96,28.95,31.59,14.32,47.67,1012.23,2029.99,2879.32,2630.02,2970.68,599.94,589.48,44.32,0000 0000 0000 0000 000000
2016-06-30 12:53:13,0.20,1.66,0.00,24.96,28.95,31.57,14.35,47.75,1012.23,2029.99,2876.36,2627.28,2967.36,599.82,589.42,44.37,0000 0000 0000 0000 000000
2016-06-30 12:58:14,0.21,1.67,0.00,24.95,28.95,31.56,14.30,47.67,1012.22,2029.99,2873.30,2624.56,2964.03,600.10,589.68,44.42,0000 0000 0000 0000 000000